Location: Unspecified
(0.0000°N, 0.0000°E)
Time: 06:03:59
(UTC+00:00)

Explorer 11/Cluster Stage 4 - Pass Details

Date: 17 September 2019
Orbit: 467 x 1259 km, 28.8° (Epoch: 14 October)

Event Time Altitude Azimuth Distance (km) Brightness Sun altitude
Rises 19:47:57 0° 247° (WSW) 4,034 11.2 -28.3°
Reaches altitude 10° 19:51:03 10° 250° (WSW) 2,977 10.3 -29.1°
Maximum altitude 19:58:14 58° 328° (NNW) 1,106 7.3 -30.9°
Enters shadow 19:58:41 57° 346° (NNW) 1,108 7.2 -31.0°
